Hourly Data Report for December 30, 2004

TORONTO CITY
ONTARIO

43°40'00.000" N
79°24'00.000" W
112.50 m
6158355
71508
XTO

Download Data

Hourly Data (December 2004)
Hourly Data Report for December 30, 2004
TIME
LST
Temp Definition
°C
Dew Point Definition
°C
Rel Hum Definition
%
Precip. Amount Definition
mm

Wind Dir Definition
10's deg

Wind Spd Definition
km/h
Visibility Definition
km
Stn Press Definition
kPa
Hmdx Definition


Wind Chill Definition


Weather Definition


00:00 1.9 -3.1 69   LegendMM LegendMM LegendMM 101.22     LegendNANA
01:00 2.1 -2.2 73   LegendMM LegendMM LegendMM 101.21     LegendNANA
02:00 2.3 -2.4 71   LegendMM LegendMM LegendMM 101.21     LegendNANA
03:00 2.0 -1.4 78   LegendMM LegendMM LegendMM 101.27     LegendNANA
04:00 1.6 -2.3 75   LegendMM LegendMM LegendMM 101.32     LegendNANA
05:00 1.5 -2.7 74   LegendMM LegendMM LegendMM 101.32     LegendNANA
06:00 1.7 -2.5 74   LegendMM LegendMM LegendMM 101.35     LegendNANA
07:00 1.4 -1.5 81   LegendMM LegendMM LegendMM 101.37     LegendNANA
08:00 1.1 -1.2 85   LegendMM LegendMM LegendMM 101.41     LegendNANA
09:00 1.6 -0.2 88   LegendMM LegendMM LegendMM 101.40     LegendNANA
10:00 2.6 0.1 84   LegendMM LegendMM LegendMM 101.44     LegendNANA
11:00 3.0 -0.1 80   LegendMM LegendMM LegendMM 101.42     LegendNANA
12:00 3.3 0.1 80   LegendMM LegendMM LegendMM 101.37     LegendNANA
13:00 3.4 -0.1 78   LegendMM LegendMM LegendMM 101.25     LegendNANA
14:00 3.5 0.1 78   LegendMM LegendMM LegendMM 101.25     LegendNANA
15:00 3.7 0.7 81   LegendMM LegendMM LegendMM 101.21     LegendNANA
16:00 3.4 1.0 84   LegendMM LegendMM LegendMM 101.20     LegendNANA
17:00 3.1 1.8 91   LegendMM LegendMM LegendMM 101.16     LegendNANA
18:00 3.1 2.1 93   LegendMM LegendMM LegendMM 101.11     LegendNANA
19:00 3.5 2.6 94   LegendMM LegendMM LegendMM 101.08     LegendNANA
20:00 3.7 2.9 94   LegendMM LegendMM LegendMM 101.00     LegendNANA
21:00 3.9 3.1 95   LegendMM LegendMM LegendMM 100.93     LegendNANA
22:00 4.3 3.4 94   LegendMM LegendMM LegendMM 100.81     LegendNANA
23:00 4.5 3.4 93   LegendMM LegendMM LegendMM 100.60     LegendNANA

Notes on Data Quality.

Legend

  • E = Estimated
  • M = Missing
  • NA = Not Available*
  • [empty] = Indicates an unobserved value
Date modified: